Temp
19 23 24 26 25 25 23 23 24 25 19 19 21 21 22 23 22 22 22 22 20 17 17 14 11 10 8 8 7 7 7 6 6 5 5 5 6 4 4 5 6 5 3 2
20 22 25 20 20 20 20 22 23 23 17 17 19 19 20 21 21 22 22 23 21 17 16 14 11 9 8 8 7 7 7 6 5 5 4 4 4 4 4 4 4 3 3 3
23 24 17 19 18 19 20 21 23 21 18 17 16 21 19 20 18 19 20 20 20 17 16 13 10 9 8 7 7 7 6 5 4 4 4 4 4 3 2 3 2 2 5 2
20 19 19 18 20 20 21 20 19 18 18 21 17 21 23 22 20 20 22 20 17 16 14 13 11 9 8 8 7 6 5 4 4 4 3 3 4 5 4 2 1 2 1 -1
22 16 17 18 20 19 21 16 17 16 18 15 20 17 23 16 19 22 24 22 18 17 15 13 11 9 8 7 6 5 4 4 3 3 2 2 2 2 1 0 1 2 1 -0
18 15 17 19 14 15 14 16 15 14 16 17 22 20 24 23 22 23 24 21 19 16 15 14 11 9 8 6 5 5 4 3 2 2 1 1 1 1 0 -0 -1 -1 -1 -2
18 17 15 15 17 15 16 19 21 21 18 21 17 17 22 22 23 22 25 24 19 16 14 13 11 9 8 6 5 4 4 3 2 1 1 0 0 -0 -1 -1 -1 -1 -2 -2
22 22 15 16 20 21 16 20 20 19 22 22 13 17 24 21 22 22 18 18 15 15 14 12 11 9 8 6 5 4 3 3 2 1 0 -0 -1 -2 -2 -2 -3 -3 -3 -3
20 22 13 12 14 17 15 17 18 17 10 15 22 25 22 17 17 17 17 17 17 16 14 12 11 9 7 6 5 4 4 3 1 0 -0 -1 -2 -3 -3 -4 -4 -5 -5 -5
21 20 15 12 13 13 14 16 16 17 18 19 22 23 24 22 21 18 16 17 18 16 15 12 10 9 8 6 5 4 4 2 1 -0 -1 -2 -3 -4 -4 -5 -5 -6 -6 -7
18 18 17 13 14 17 13 16 15 16 16 19 20 23 21 21 22 19 19 20 19 17 15 13 11 9 8 7 5 4 3 2 -0 -1 -3 -3 -4 -4 -4 -4 -6 -7 -8 -8
16 17 19 20 13 12 16 18 18 18 17 16 19 21 21 20 20 19 20 18 17 16 17 15 11 9 7 6 5 3 2 0 -1 -2 -3 -4 -5 -4 -5 -6 -7 -8 -9 -9
15 14 16 18 13 11 14 15 16 18 18 18 17 19 23 23 20 18 18 18 16 15 16 13 11 9 8 6 4 3 1 -0 -2 -4 -4 -5 -4 -5 -6 -7 -8 -9 -10 -10
15 13 17 19 20 16 15 15 14 16 17 18 18 19 21 22 21 22 20 16 16 16 15 15 11 9 7 5 3 2 -0 -1 -4 -5 -5 -5 -6 -6 -7 -7 -8 -9 -11 -11
15 14 14 16 18 18 17 18 16 14 16 17 19 20 21 21 21 21 21 20 19 18 14 14 12 9 7 4 2 0 -1 -3 -5 -5 -6 -7 -8 -7 -8 -8 -10 -10 -11 -12
11 13 14 13 15 14 15 16 17 17 16 17 17 16 19 19 20 19 19 18 18 18 17 13 9 7 5 4 1 -1 -2 -4 -6 -6 -7 -8 -8 -8 -9 -10 -10 -11 -12 -13
10 10 10 11 12 13 12 12 13 15 16 17 16 18 19 19 18 18 18 18 16 16 16 15 9 7 5 2 -0 -2 -4 -6 -7 -8 -9 -8 -9 -9 -10 -11 -11 -13 -14 -14
11 11 12 11 11 11 13 16 15 15 15 16 16 17 18 18 18 18 18 16 15 15 15 11 8 7 4 1 -1 -2 -6 -8 -8 -9 -9 -10 -10 -11 -12 -12 -13 -14 -14 -15
12 11 10 10 11 14 12 14 13 13 14 16 16 16 17 17 15 16 17 16 15 15 15 13 8 6 2 0 -2 -6 -8 -8 -9 -11 -11 -11 -12 -12 -13 -13 -14 -14 -14 -15
10 12 10 10 11 12 16 15 16 13 12 17 16 16 16 14 13 16 18 15 13 12 9 4 3 1 -0 -3 -6 -7 -8 -9 -10 -11 -12 -12 -12 -13 -14 -14 -14 -14 -14 -16
10 9 10 10 11 11 15 14 13 10 15 17 17 16 15 15 15 16 11 10 6 4 2 1 -1 -2 -4 -7 -7 -6 -9 -9 -10 -12 -13 -13 -14 -13 -14 -14 -14 -14 -15 -17
14 11 10 10 10 11 14 15 13 17 18 17 17 15 13 14 14 14 12 5 2 0 -1 -2 -3 -5 -8 -7 -6 -8 -9 -11 -13 -14 -15 -15 -14 -15 -14 -14 -15 -15 -17 -17
12 15 15 14 15 16 16 15 16 16 17 17 16 15 13 13 12 13 10 3 2 -0 -2 -4 -5 -7 -8 -8 -7 -8 -12 -14 -15 -15 -15 -15 -15 -15 -15 -15 -16 -16 -17 -16
10 14 13 14 16 16 15 16 15 16 14 15 15 14 12 13 12 10 7 3 -1 -3 -4 -5 -7 -8 -9 -9 -9 -12 -14 -15 -15 -15 -16 -16 -16 -16 -16 -17 -17 -17 -16 -15
8 8 8 7 8 10 12 13 13 13 11 10 11 10 11 11 8 9 7 3 1 -2 -4 -6 -7 -8 -10 -11 -14 -14 -15 -13 -14 -16 -17 -17 -17 -17 -17 -17 -17 -17 -16 -16
8 9 9 9 11 11 11 10 10 9 10 11 10 10 9 8 9 8 6 5 0 -3 -6 -7 -7 -10 -12 -14 -15 -16 -15 -14 -15 -16 -17 -17 -17 -17 -17 -17 -17 -18 -17 -16
Height
815 810 802 789 794 790 799 801 795 781 800 801 788 785 771 759 760 750 746 746 752 759 762 769 777 785 790 794 798 802 806 809 811 814 816 817 817 818 818 817 817 818 817 816
815 806 782 798 801 804 805 800 790 787 802 806 789 783 768 760 749 742 736 730 738 751 756 764 772 778 781 787 793 797 801 803 805 808 809 810 811 812 813 814 814 813 813 811
798 783 801 799 804 804 800 796 785 794 800 800 796 764 762 748 747 737 729 728 732 740 746 755 764 769 776 780 785 790 795 798 800 801 804 806 808 810 812 812 812 810 807 807
799 792 795 800 794 796 797 789 795 800 803 786 797 748 741 737 739 734 716 723 729 734 741 748 754 760 764 769 779 784 788 792 796 798 801 803 806 808 808 808 808 807 807 806
780 797 799 796 786 791 787 801 801 805 802 809 782 788 727 749 740 724 707 708 716 722 731 738 745 752 759 768 772 777 783 786 789 793 797 801 803 805 807 806 804 803 802 800
788 797 793 784 800 799 806 802 807 812 807 792 760 766 715 721 722 714 702 705 711 718 724 732 741 750 756 763 768 772 776 780 783 787 791 795 799 801 802 802 802 801 798 797
788 788 790 791 792 802 800 793 787 782 794 761 768 769 712 714 707 708 695 696 710 717 721 726 734 741 747 752 758 763 768 772 778 782 787 790 793 795 798 798 797 796 796 793
773 767 784 778 767 765 789 780 784 785 765 742 784 744 697 702 699 696 705 708 714 714 719 723 727 732 737 744 751 756 761 766 772 777 781 784 786 790 792 793 794 793 792 788
769 756 778 783 779 772 787 785 770 779 814 784 718 685 688 703 705 706 704 703 702 708 712 718 722 726 731 735 738 742 751 760 765 770 774 777 780 782 783 786 785 784 785 784
748 762 773 786 782 783 779 775 780 777 777 759 701 689 684 687 686 696 702 699 693 699 706 711 715 719 721 725 732 740 743 748 756 763 769 771 773 774 777 778 779 779 779 777
753 756 764 780 771 754 777 768 773 769 763 746 734 676 674 675 672 685 685 684 688 693 695 701 708 710 717 720 725 730 737 741 747 754 760 765 766 768 770 771 773 772 770 769
750 751 747 737 756 761 748 741 742 746 745 745 726 688 654 672 674 680 682 684 686 689 691 694 700 703 706 709 715 720 729 733 737 745 751 756 759 760 762 762 764 764 763 761
744 754 756 738 755 766 753 746 741 727 726 715 731 684 660 656 674 682 682 682 685 684 683 689 693 694 695 701 708 713 721 726 730 737 742 748 751 753 754 756 758 755 755 752
726 738 727 721 704 726 734 736 734 728 720 702 700 686 660 651 670 664 667 677 676 672 674 674 680 682 689 693 700 707 715 718 721 730 736 741 744 744 747 746 747 746 745 745
727 728 730 719 711 712 714 717 718 717 709 697 672 681 659 651 658 654 655 656 656 658 665 663 666 671 679 686 691 698 705 708 715 723 729 735 739 739 742 743 742 740 738 737
732 717 724 724 714 717 717 714 692 696 688 686 689 687 654 651 650 653 640 650 646 645 646 651 656 662 667 672 679 688 696 702 709 719 725 729 731 734 736 736 736 735 732 732
729 726 728 713 709 709 717 700 695 676 670 670 673 654 642 643 643 634 627 637 635 633 633 635 643 648 653 659 667 676 685 694 703 711 717 722 725 727 729 730 730 729 731 729
711 711 706 701 708 699 668 669 660 657 651 649 654 636 630 625 622 621 619 628 622 621 621 627 630 635 643 653 663 673 681 688 697 704 706 711 714 719 722 724 725 727 725 723
691 695 696 692 679 653 666 652 653 644 637 638 632 618 610 603 627 610 612 611 610 611 614 616 621 625 635 644 657 668 678 686 695 701 705 708 712 712 714 718 721 720 718 717
680 680 684 676 662 645 627 631 629 638 646 605 605 610 607 614 627 600 588 600 599 601 610 615 623 629 631 638 646 657 668 676 687 698 704 708 711 713 711 710 714 716 715 715
667 673 666 658 645 631 616 616 627 651 603 582 587 590 596 603 596 581 590 596 604 604 609 612 617 626 635 645 649 655 668 675 680 688 696 701 707 707 708 706 706 711 713 711
615 637 643 649 638 621 602 606 613 568 562 572 572 576 585 582 580 582 585 595 600 601 605 609 613 621 634 637 645 658 667 678 683 685 692 698 700 703 701 701 700 704 708 707
603 582 580 584 573 571 572 569 566 570 563 563 567 566 573 575 576 576 580 589 592 598 604 608 608 615 626 633 637 650 663 673 679 682 686 692 694 698 697 697 697 699 702 704
601 585 580 577 566 563 564 562 563 563 564 560 559 558 565 565 566 571 576 582 588 593 601 606 609 616 625 633 635 640 654 665 678 679 684 688 693 694 695 692 694 695 700 701
617 608 607 600 598 584 575 569 571 572 575 570 565 564 559 559 563 563 567 571 576 583 594 601 606 611 618 630 628 638 644 656 663 672 678 682 688 690 690 690 691 693 697 699
616 600 593 583 582 577 573 572 575 577 574 563 560 555 554 553 551 552 555 556 565 574 582 591 597 602 611 621 629 637 643 647 656 666 674 679 686 688 688 689 692 692 693 693
Wind_Speed
1 6 16 17 17 13 7 8 16 15 4 5 16 20 25 24 21 26 25 21 18 21 20 27 30 29 28 27 26 25 22 20 16 13 10 7 6 6 6 7 10 12 12 12
3 15 17 0 6 9 8 13 20 13 2 6 14 21 24 24 26 25 25 23 16 16 16 21 27 31 32 31 28 26 24 21 19 14 12 8 7 7 8 10 11 11 12 14
16 9 2 8 8 11 11 17 14 10 6 7 12 17 7 8 10 14 21 19 14 16 17 19 25 33 32 32 33 30 26 23 20 17 14 11 9 9 8 9 8 10 15 15
9 3 8 7 11 12 13 9 11 8 5 11 4 19 11 9 11 13 21 12 12 15 15 16 22 31 36 36 32 29 26 23 20 19 16 13 12 12 10 7 10 13 14 14
6 8 9 10 9 11 5 2 4 3 8 6 12 10 9 2 6 18 20 10 15 14 15 18 19 29 33 31 32 29 26 23 22 22 18 14 14 12 9 9 13 14 16 16
7 0 4 4 3 1 9 3 2 1 3 9 16 14 9 5 6 8 12 10 9 12 13 13 18 23 27 30 30 29 28 25 23 22 21 19 15 12 12 12 10 12 14 14
4 7 3 3 4 2 5 4 6 6 5 12 3 8 20 15 14 13 19 9 8 9 11 13 16 20 27 33 34 32 31 29 25 23 21 18 16 15 14 12 12 12 13 14
6 14 13 12 15 7 12 8 6 11 13 21 7 11 14 10 14 17 8 5 5 8 8 12 16 22 27 31 34 34 34 31 27 24 21 18 16 13 13 12 10 12 15 16
8 16 3 1 1 4 8 8 3 3 2 7 12 24 9 7 10 8 14 12 14 11 11 13 15 22 26 31 37 39 36 31 28 25 21 19 16 14 11 11 12 14 14 15
3 10 3 3 1 1 4 4 4 3 6 16 24 29 18 10 15 9 11 15 15 10 10 12 14 22 26 30 33 35 35 35 29 24 20 17 16 14 11 11 12 12 14 14
3 6 3 5 12 16 6 6 5 3 5 9 18 18 3 5 5 11 13 14 11 12 13 12 14 21 24 25 31 34 35 33 29 24 20 18 16 14 11 10 10 12 13 14
8 3 10 21 3 2 9 15 18 9 11 9 13 26 8 5 4 4 6 6 8 9 12 11 13 19 23 28 31 34 34 32 29 25 21 18 15 13 11 10 10 11 13 14
10 5 7 13 5 2 8 10 10 17 15 29 13 23 16 19 6 5 8 10 7 11 14 12 12 16 21 26 29 32 33 31 27 25 23 19 16 13 10 10 11 11 12 13
10 7 13 20 22 1 5 14 19 23 18 22 25 30 36 34 22 23 18 12 15 15 14 16 15 16 20 24 29 31 32 30 28 25 22 18 15 13 11 9 9 9 10 13
6 14 14 21 24 23 24 19 19 26 28 26 29 25 31 32 26 26 20 16 20 19 14 18 16 15 15 23 28 31 33 31 28 25 21 17 14 11 8 8 7 8 9 11
4 18 18 27 29 32 34 21 33 32 34 25 24 27 35 35 31 29 33 25 28 25 21 18 16 14 16 25 30 32 32 29 27 23 19 17 14 11 8 7 7 8 9 12
9 8 11 22 25 23 14 33 35 41 38 32 30 34 36 34 29 31 32 23 24 26 24 18 17 17 17 29 34 35 33 30 26 23 21 18 15 11 8 6 6 7 9 12
15 20 13 11 9 17 22 25 36 36 34 33 28 36 35 35 32 30 24 18 21 23 22 12 13 14 23 27 30 31 31 31 27 24 24 20 16 12 7 5 4 6 8 11
25 21 10 8 15 17 3 16 22 21 32 28 32 34 35 34 12 30 21 22 25 24 19 13 15 19 24 30 32 32 29 27 24 22 21 19 15 12 8 4 3 6 9 11
25 25 18 12 13 19 20 29 23 5 8 30 28 28 29 7 9 19 20 17 17 16 7 7 12 18 27 31 37 35 31 28 24 21 18 15 13 9 6 3 2 6 10 12
9 13 24 23 21 14 11 9 4 11 19 31 31 27 25 21 19 24 1 6 1 3 8 16 22 20 24 28 32 30 26 24 25 23 20 16 12 9 6 2 3 6 9 11
23 12 11 12 18 25 18 24 24 28 29 25 22 14 12 16 22 20 12 9 9 10 11 18 15 19 23 31 32 25 23 21 23 23 19 15 12 9 6 3 2 4 7 9
20 26 25 21 14 11 14 29 30 32 28 24 18 18 12 15 17 17 13 13 12 11 10 17 16 21 25 30 32 28 23 26 24 22 20 17 13 9 6 4 2 3 4 7
9 21 18 25 29 23 16 18 22 24 26 27 24 23 10 17 15 14 9 8 10 12 12 16 18 16 19 25 27 30 33 28 26 23 18 15 11 9 6 5 3 3 3 7
10 11 9 13 21 22 21 19 16 16 16 15 17 13 17 16 14 16 12 13 13 13 13 20 15 15 23 26 31 35 37 36 32 22 18 16 13 10 8 6 4 2 1 7
20 19 14 17 19 17 16 12 17 22 26 22 16 19 17 15 21 16 15 13 13 15 16 17 21 26 29 28 29 32 37 38 32 22 17 14 11 8 7 6 4 2 1 6
Wind_Direction
91 227 240 246 229 268 266 259 261 267 200 245 256 262 268 280 275 263 270 263 248 233 225 209 204 200 194 194 193 195 193 194 192 194 197 202 197 212 250 245 275 274 291 297
176 239 253 49 214 227 233 260 264 280 250 220 275 273 273 268 268 270 271 269 251 240 224 206 200 199 197 195 196 197 198 197 198 198 199 196 202 231 236 248 262 266 290 294
228 255 79 197 207 206 228 236 256 267 323 237 293 275 241 256 264 271 261 259 250 228 215 203 202 202 198 197 197 197 198 199 201 202 202 211 232 249 251 249 256 274 286 293
240 243 207 198 230 204 240 231 245 266 295 282 5 291 279 252 245 264 273 239 222 217 214 204 202 202 201 200 197 198 197 198 201 204 206 205 214 224 227 251 266 283 289 294
222 180 190 207 229 178 250 110 173 209 257 316 257 268 280 167 241 259 262 250 222 210 202 202 203 204 202 196 194 196 196 195 199 204 206 206 220 236 253 271 281 285 289 286
261 118 217 212 82 156 135 120 145 154 258 254 259 225 275 242 212 246 265 229 203 199 197 206 203 201 200 197 196 193 194 195 194 196 201 208 216 224 236 248 262 271 273 286
193 219 167 177 133 118 195 180 277 256 225 264 152 234 262 283 242 233 256 251 188 183 186 189 191 193 193 196 197 192 193 195 194 196 201 205 212 223 237 244 252 265 279 275
241 255 183 183 218 204 184 217 204 261 277 288 113 251 278 227 252 247 269 260 195 213 207 203 196 196 195 195 198 196 195 195 193 195 199 202 209 217 229 243 258 267 269 274
210 256 99 230 93 181 164 199 234 288 105 280 259 262 239 186 251 250 253 246 241 233 207 206 203 199 197 198 198 196 193 194 192 193 194 199 203 212 222 236 249 261 269 282
256 262 119 124 155 51 225 140 139 200 260 258 276 281 279 239 244 212 237 239 240 223 215 210 205 205 203 201 201 199 195 191 189 190 193 195 200 210 222 240 252 265 278 283
204 217 197 151 205 191 171 204 227 311 227 254 265 270 102 171 263 207 219 232 240 227 217 209 212 206 209 203 199 195 194 189 183 185 188 192 200 209 224 244 263 272 281 288
207 208 234 239 147 309 252 232 215 225 228 235 259 270 118 58 146 183 235 242 236 233 218 214 211 204 202 203 198 195 192 186 181 183 185 192 199 208 223 241 260 276 287 294
170 207 241 255 213 179 212 210 232 242 258 248 236 252 255 270 266 240 246 253 258 235 218 222 212 210 208 204 196 192 192 186 175 179 185 191 199 207 221 249 270 282 290 301
176 172 217 239 251 99 191 228 222 223 234 252 242 260 274 274 272 279 270 245 241 241 231 228 221 218 213 201 196 191 190 182 174 179 184 189 195 202 223 244 264 280 296 308
183 234 236 249 261 274 278 270 251 234 242 243 257 258 261 273 276 272 273 273 272 267 231 234 230 216 205 197 191 188 187 178 176 178 180 186 193 202 225 253 269 291 305 303
203 244 247 252 261 263 258 260 262 266 258 252 254 262 263 269 279 282 275 269 273 271 257 238 225 203 198 193 189 183 182 176 174 175 177 181 188 200 220 245 275 295 297 299
211 224 220 240 232 251 256 241 249 256 262 257 255 255 269 267 264 261 271 273 266 266 264 259 210 205 200 191 184 183 175 167 171 172 176 182 188 197 213 239 274 290 302 311
241 226 228 247 231 230 234 244 237 244 251 258 254 253 256 259 265 272 271 266 259 263 268 244 210 205 194 184 179 172 165 165 168 172 176 181 184 191 200 228 273 297 310 313
219 231 236 232 222 242 180 236 226 229 246 256 249 252 250 256 266 269 260 254 259 265 271 259 210 195 173 172 168 162 159 160 168 175 177 180 182 181 188 209 270 302 313 315
226 228 229 224 232 236 234 237 240 78 250 249 240 249 254 260 248 262 268 238 238 243 238 158 160 163 163 165 161 161 164 162 168 172 173 175 179 177 171 178 314 323 324 313
202 216 227 235 245 247 222 209 111 194 242 247 250 248 249 248 234 251 116 194 288 145 157 153 153 162 163 162 164 161 160 166 163 160 163 165 171 169 165 135 357 331 323 317
223 206 214 231 242 248 218 228 221 237 241 242 257 251 221 237 249 244 233 188 190 177 160 164 152 155 158 161 163 157 156 154 156 154 155 161 163 165 157 127 52 348 331 329
231 226 237 223 232 240 212 223 226 240 250 252 251 253 217 240 239 238 222 202 197 188 173 170 157 149 159 166 163 152 148 155 155 152 154 159 157 161 155 136 85 53 351 343
279 265 263 261 252 263 253 236 239 240 240 247 253 258 220 234 240 239 226 193 184 178 178 170 155 156 154 162 152 145 150 156 158 149 152 153 160 159 147 128 106 63 358 339
275 297 284 290 289 281 285 281 283 288 288 279 273 267 249 245 244 238 232 211 197 181 172 169 164 160 157 157 142 152 158 160 157 154 155 156 160 158 142 119 108 90 343 326
269 281 278 275 295 282 283 305 306 299 294 286 278 275 260 245 253 242 233 223 190 179 168 169 168 159 157 153 148 158 163 161 152 151 156 154 152 145 124 108 107 67 16 354